Hatteras, NC

9:44 AM EDT on April 24, 2018 (GMT -0400)
Mitchell

Weather History for KHSE - January, 2012

Change the Weather History Date:

Monday, January 23, 2012

  Actual Average Record
Temperature  
Mean Temperature 57 °F 45 °F  
Max Temperature 65 °F 52 °F 74 °F (1937)
Min Temperature 48 °F 39 °F 12 °F (1970)
Degree Days  
Heating Degree Days 8 20  
Month to date heating degree days 343 453  
Since 1 July heating degree days 925 1260  
Growing Degree Days 6 (Base 50)    
Moisture  
Dew Point 49 °F    
Average Humidity 84    
Maximum Humidity 93    
Minimum Humidity 75    
Precipitation  
Precipitation T in 0.17 in 2.08 in (1998)
Month to date precipitation 4.63 3.91  
Year to date precipitation 4.63 3.91  
Snow  
Snow 0.00 in - - ()
Month to date snowfall 0.0  
Since 1 July snowfall 0.0  
Snow Depth 0.00 in    
Sea Level Pressure  
Sea Level Pressure 30.18 in    
Wind  
Wind Speed 5 mph (NNW)    
Max Wind Speed 12 mph    
Max Gust Speed 17 mph    
Visibility 4 miles    
Events Fog    
T = Trace of Precipitation, MM = Missing Value Source: NWS Daily Summary

Daily Weather History Graph

Daily Weather History Graph

Search for Another Location

Airport or City:

Astronomy

Jan. 23, 2012 Rise Set
Actual Time 7:07 AM EST 5:21 PM EST
Civil Twilight 6:40 AM EST 5:48 PM EST
Nautical Twilight 6:09 AM EST 6:19 PM EST
Astronomical Twilight 5:39 AM EST 6:49 PM EST
Moon 7:04 AM EST (1/23) 6:03 PM EST (1/23)
Length of Visible Light 11h 07m
Length of Day
10h 13m
New Moon, 0% of the Moon is Illuminated
Jan 23
New Moon
Jan 30
First Quarter
Feb 7
Full
Feb 14
Last Quarter
Feb 21
New

Hourly Weather History & Observations

Time (EST) Temp. Dew Point Humidity Pressure Visibility Wind Dir Wind Speed Gust Speed Precip Events Conditions
12:51 AM 48.0 °F 45.0 °F 89% 30.24 in 9.0 mi Variable 6.9 mph - N/A   Overcast
1:51 AM 48.9 °F 45.0 °F 86% 30.23 in 8.0 mi North 8.1 mph - N/A   Overcast
2:23 AM 48.2 °F 46.4 °F 93% 30.24 in 5.0 mi Variable 5.8 mph - N/A   Overcast
2:37 AM 48.2 °F 46.4 °F 93% 30.24 in 1.8 mi Variable 5.8 mph - N/A   Overcast
2:51 AM 48.9 °F 46.0 °F 90% 30.24 in 1.5 mi Variable 4.6 mph - N/A   Overcast
3:01 AM 48.2 °F 46.4 °F 93% 30.24 in 1.0 mi Variable 5.8 mph - N/A   Overcast
3:11 AM 48.2 °F 46.4 °F 93% 30.24 in 0.8 mi Variable 3.5 mph - N/A   Mist
3:51 AM 48.0 °F 46.0 °F 93% 30.23 in 0.8 mi Variable 4.6 mph - N/A   Mist
4:14 AM 48.2 °F 46.4 °F 93% 30.22 in 1.2 mi Variable 5.8 mph - N/A   Overcast
4:19 AM 48.2 °F 46.4 °F 93% 30.22 in 2.0 mi North 5.8 mph - N/A   Overcast
4:29 AM 48.2 °F 46.4 °F 93% 30.22 in 5.0 mi North 3.5 mph - N/A   Overcast
4:47 AM 48.2 °F 46.4 °F 93% 30.22 in 5.0 mi North 4.6 mph - N/A   Overcast
4:51 AM 48.0 °F 46.0 °F 93% 30.22 in 5.0 mi NNW 5.8 mph - N/A   Overcast
5:16 AM 48.2 °F 46.4 °F 93% 30.22 in 5.0 mi Variable 4.6 mph - N/A   Overcast
5:37 AM 48.2 °F 46.4 °F 93% 30.21 in 7.0 mi North 5.8 mph - N/A   Overcast
5:51 AM 48.9 °F 46.0 °F 90% 30.21 in 7.0 mi Variable 4.6 mph - N/A   Overcast
6:32 AM 48.2 °F 46.4 °F 93% 30.20 in 8.0 mi North 5.8 mph - N/A   Overcast
6:51 AM 48.9 °F 46.0 °F 90% 30.21 in 7.0 mi NNW 5.8 mph - N/A   Overcast
7:19 AM 48.2 °F 46.4 °F 93% 30.19 in 2.5 mi Calm Calm - N/A   Overcast
7:51 AM 48.9 °F 46.9 °F 93% 30.19 in 2.5 mi Calm Calm - N/A   Overcast
8:09 AM 50.0 °F 46.4 °F 87% 30.19 in 1.2 mi NE 3.5 mph - N/A   Overcast
8:13 AM 50.0 °F 46.4 °F 87% 30.19 in 0.8 mi NE 3.5 mph - N/A   Overcast
8:31 AM 50.0 °F 48.2 °F 94% 30.20 in 0.2 mi Calm Calm - N/A Fog Fog
8:51 AM 50.0 °F 48.9 °F 96% 30.20 in 0.2 mi Calm Calm - N/A Fog Fog
9:21 AM 51.8 °F 48.2 °F 88% 30.22 in 1.0 mi Calm Calm - N/A   Mist
9:26 AM 50.0 °F 48.2 °F 94% 30.22 in 0.2 mi Calm Calm - N/A Fog Fog
9:51 AM 51.1 °F 48.9 °F 92% 30.22 in 0.5 mi Calm Calm - N/A Fog Fog
10:00 AM 51.8 °F 50.0 °F 94% 30.23 in 0.2 mi Variable 3.5 mph - N/A Fog Fog
10:09 AM 51.8 °F 48.2 °F 88% 30.22 in 0.8 mi NNW 3.5 mph - N/A   Overcast
10:37 AM 51.8 °F 48.2 °F 88% 30.22 in 0.2 mi NW 3.5 mph - N/A Fog Fog
10:51 AM 51.1 °F 48.9 °F 92% 30.21 in 0.2 mi Calm Calm - N/A Fog Fog
10:58 AM 51.8 °F 48.2 °F 88% 30.20 in 0.5 mi Calm Calm - N/A Fog Fog
11:35 AM 51.8 °F 48.2 °F 88% 30.19 in 1.2 mi Variable 3.5 mph - N/A   Overcast
11:44 AM 51.8 °F 48.2 °F 88% 30.18 in 2.0 mi Calm Calm - N/A   Overcast
11:51 AM 53.1 °F 48.9 °F 86% 30.17 in 2.0 mi Variable 3.5 mph - N/A   Overcast
11:54 AM 51.8 °F 48.2 °F 88% 30.17 in 1.2 mi NNW 4.6 mph - N/A   Overcast
12:06 PM 51.8 °F 48.2 °F 88% 30.16 in 2.0 mi Calm Calm - N/A   Overcast
12:14 PM 53.6 °F 50.0 °F 88% 30.16 in 9.0 mi Calm Calm - N/A   Mostly Cloudy
12:23 PM 55.4 °F 50.0 °F 82% 30.15 in 10.0 mi Calm Calm - N/A   Scattered Clouds
12:51 PM 54.0 °F 48.9 °F 83% 30.15 in 5.0 mi Variable 4.6 mph - N/A   Haze
1:51 PM 59.0 °F 51.1 °F 75% 30.13 in 9.0 mi Calm Calm - N/A   Mostly Cloudy
2:51 PM 57.0 °F 51.1 °F 81% 30.12 in 8.0 mi SE 6.9 mph - N/A   Clear
3:33 PM 55.4 °F 51.8 °F 88% 30.10 in 8.0 mi ESE 8.1 mph - N/A   Mostly Cloudy
3:46 PM 55.4 °F 51.8 °F 88% 30.10 in 9.0 mi SE 8.1 mph - N/A   Mostly Cloudy
3:51 PM 55.9 °F 51.1 °F 84% 30.10 in 8.0 mi ESE 8.1 mph - N/A   Mostly Cloudy
4:27 PM 57.2 °F 51.8 °F 82% 30.10 in 8.0 mi ESE 6.9 mph - N/A   Mostly Cloudy
4:51 PM 59.0 °F 55.0 °F 87% 30.10 in 7.0 mi Calm Calm - N/A   Partly Cloudy
5:51 PM 61.0 °F 57.0 °F 87% 30.10 in 9.0 mi SW 9.2 mph - N/A   Partly Cloudy
6:51 PM 63.0 °F 59.0 °F 87% 30.10 in 9.0 mi SSW 9.2 mph - N/A   Scattered Clouds
7:51 PM 64.0 °F 60.1 °F 87% 30.09 in 10.0 mi SW 9.2 mph - N/A   Clear
8:51 PM 62.1 °F 57.9 °F 86% 30.08 in 8.0 mi SW 8.1 mph - N/A   Scattered Clouds
9:51 PM 61.0 °F 57.9 °F 90% 30.10 in 6.0 mi WSW 6.9 mph - N/A   Clear
10:51 PM 62.1 °F 59.0 °F 90% 30.09 in 7.0 mi SW 8.1 mph - N/A   Partly Cloudy
11:51 PM 62.1 °F 57.9 °F 86% 30.08 in 6.0 mi SW 6.9 mph - N/A   Partly Cloudy